SCP
0 0 0 0 0 0 0 0 0 0 0 0 0 0 0 0 0 0 0 0 0 0 0 0 0 0 0 0 0 0 0 0 0 0 0 0 0 0
0 0 0 0 0 0 0 0 0 0 0 0 0 0 0 0 0 0 0 0 0 0 0 0 0 0 0 0 0 0 0 0 0 0 0 0 0 0
0 0 0 0 0 0 0 0 0 0 0 0 0 0 0 0 0 0 0 0 0 0 0 0 0 0 0 0 0 0 0 0 0 0 0 0 0 0
0 0 0 0 0 0 0 0 0 0 0 0 0 0 0 0 0 0 0 0 0 0 0 0 0 0 0 0 0 0 0 0 0 0 0 0 0 0
0 0 0 0 0 0 0 0 0 0 0 0 0 0 0 0 0 0 0 0 0 0 0 0 0 0 0 0 0 0 0 0 0 0 0 0 0 0
0 0 0 0 0 0 0 0 0 0 0 0 0 0 0 0 0 0 0 0 0 0 0 0 0 0 0 0 0 0 0 0 0 0 0 0 0 0
0 0 0 0 0 0 0 0 0 0 0 0 0 0 0 0 0 0 0 0 0 0 0 0 0 0 0 0 0 0 0 0 0 0 0 0 0 0
0 0 0 0 0 0 0 0 0 0 0 0 0 0 0 0 0 0 0 0 0 0 0 0 0 0 0 0 0 0 0 0 0 0 0 0 0 0
0 0 0 0 0 0 0 0 0 0 0 0 0 0 0 0 0 0 0 0 0 0 0 0 0 0 0 0 0 0 0 0 0 0 0 0 0 0
0 0 0 0 0 0 0 0 0 0 0 0 0 0 0 0 0 0 0 0 0 0 0 0 0 0 0 0 0 0 0 0 0 0 0 0 0 0
0 0 0 0 0 0 0 0 0 0 0 0 0 0 0 0 0 0 0 0 0 0 0 0 0 0 0 0 0 0 0 0 0 0 0 0 0 0
0 0 0 0 0 0 0 0 0 0 0 0 0 0 0 0 0 0 0 0 0 0 0 0 0 0 0 0 0 0 0 0 0 0 0 0 0 0
0 0 0 0 0 0 0 0 0 0 0 0 0 0 0 0 0 0 0 0 0 0 0 0 0 0 0 0 0 0 0 0 0 0 0 0 0 0
0 0 0 0 0 0 0 0 0 0 0 0 0 0 0 0 0 0 0 0 0 0 0 0 0 0 0 0 0 0 0 0 0 0 0 0 0 0
0 0 0 0 0 0 0 0 0 0 0 0 0 0 0 0 0 0 0 0 0 0 0 0 0 0 0 0 0 0 0 0 0 0 0 0 0 0
0 0 0 0 0 0 0 0 0 0 0 0 0 0 0 0 0 0 0 0 0 0 0 0 0 0 0 0 0 0 0 0 0 0 0 0 0 0
0 0 0 0 0 0 0 0 0 0 0 0 0 0 0 0 0 0 0 0 0 0 0 0 0 0 0 0 0 0 0 0 0 0 0 0 0 0
0 0 0 0 0 0 0 0 0 0 0 0 0 0 0 0 0 0 0 0 0 0 0 0 0 0 0 0 0 0 0 0 0 0 0 0 0 0
0 0 0 0 0 0 0 0 0 0 0 0 0 0 0 0 0 0 0 0 0 0 0 0 0 0 0 0 0 0 0 0 0 0 0 0 0 0
0 0 0 0 0 0 0 0 0 0 0 0 0 0 0 0 0 0 0 0 0 0 0 0 0 0 0 0 0 0 0 0 0 0 0 0 0 0
0 0 0 0 0 0 0 0 0 0 0 0 0 0 0 0 0 0 0 0 0 0 0 0 0 0 0 0 0 0 0 0 0 0 0 0 0 0
0 0 0 0 0 0 0 0 0 0 0 0 0 0 0 0 0 0 0 0 0 0 0 0 0 0 0 0 0 0 0 0 0 0 0 0 0 0
0 0 0 0 0 0 0 0 0 0 0 0 0 0 0 0 0 0 0 0 0 0 0 0 0 0 0 0 0 0 0 0 0 0 0 0 0 0
Wind_Speed_500mb
80 78 77 75 69 68 68 65 61 49 45 47 52 41 40 37 47 48 50 50 52 54 50 52 47 44 48 52 54 68 73 77 71 65 69 64 60 60
83 79 78 76 71 70 66 61 60 59 61 53 47 57 53 50 57 54 51 53 53 45 45 50 47 45 49 53 51 66 64 68 66 61 64 61 57 58
82 81 78 74 69 65 61 56 55 56 60 62 62 54 54 54 59 57 58 54 52 52 50 52 48 43 45 46 49 59 60 64 60 58 64 64 59 59
82 78 75 71 66 61 57 56 55 56 53 63 67 64 61 60 59 64 60 51 49 44 40 35 32 41 44 43 51 56 61 62 61 64 66 61 61 61
78 75 71 67 62 59 57 59 58 58 65 56 59 61 60 62 63 62 52 46 39 36 32 28 34 36 36 39 44 53 61 65 64 67 68 72 70 68
74 71 66 62 59 58 59 63 59 64 63 62 63 60 62 64 64 53 43 37 34 31 30 27 28 32 33 35 40 46 58 66 68 70 72 74 72 75
73 67 61 59 61 64 61 63 62 63 62 62 64 68 67 59 45 40 38 33 30 29 22 23 23 28 29 31 34 38 48 63 68 71 73 73 75 75
74 67 65 67 65 65 63 63 61 60 60 65 67 62 49 37 34 34 33 31 30 31 31 29 25 22 24 24 27 33 36 44 53 62 68 72 78 83
72 70 71 71 67 63 62 59 59 64 61 55 50 40 38 38 35 34 33 30 30 31 30 29 25 26 28 27 26 27 32 38 46 53 62 68 75 75
73 72 70 67 66 63 60 61 58 53 48 47 45 41 41 38 36 32 30 22 18 22 29 29 35 29 28 30 28 26 24 27 33 37 42 50 53 55
74 73 70 69 69 70 62 55 52 50 49 45 42 39 38 35 30 28 24 19 17 19 22 22 28 40 35 26 12 8 36 46 43 45 46 49 50 50
78 75 74 72 69 60 55 54 53 49 43 39 38 37 32 28 25 25 26 25 16 13 14 24 31 34 18 3 16 45 42 41 44 50 51 53 54 57
77 76 72 64 58 56 52 51 45 40 39 36 34 31 27 26 25 27 26 18 16 14 18 22 27 33 34 41 45 49 48 48 46 45 44 44 47 48
70 64 58 57 55 54 52 48 46 41 39 35 33 30 27 27 28 27 23 18 16 18 22 24 29 31 34 43 48 49 52 49 49 41 45 45 43 45
60 55 57 56 56 56 52 50 47 41 37 36 34 30 30 28 25 22 20 18 16 17 19 22 23 25 29 35 45 53 58 59 40 53 50 47 51 50
60 63 63 61 58 54 54 51 44 38 35 34 31 28 27 25 19 17 17 14 13 16 19 22 24 27 32 35 41 50 44 42 54 52 52 60 66 60
68 66 66 66 62 61 55 48 43 40 38 35 31 28 24 22 18 15 15 15 15 16 16 18 20 22 26 30 39 39 43 47 45 52 62 76 79 69
70 73 72 66 62 60 55 51 47 42 37 34 28 24 22 19 16 15 15 14 12 12 12 13 17 22 27 27 27 39 39 40 46 56 65 67 75 69
71 72 69 65 62 57 54 52 47 41 35 31 26 21 20 18 17 16 16 15 12 10 12 18 22 26 29 31 35 29 39 53 53 57 54 56 69 78
75 75 72 65 61 58 56 51 45 39 36 31 25 23 22 18 18 19 18 16 12 11 16 18 20 23 28 34 45 51 41 40 50 61 68 70 69 65
80 74 68 65 62 55 52 48 42 37 32 29 27 25 23 22 21 20 20 17 15 15 15 15 19 25 31 35 39 45 45 42 41 48 53 57 64 67
81 77 68 61 58 55 51 47 42 36 33 32 27 30 27 25 23 22 20 18 18 18 18 19 22 27 32 38 43 46 49 48 41 37 32 33 39 46
83 69 62 57 55 52 49 43 37 32 30 29 39 33 30 28 26 25 23 22 21 21 22 23 26 30 33 36 39 42 45 46 49 45 38 33 31 35
Wind_Direction_500mb
256 257 257 258 257 249 252 256 260 263 270 274 283 282 295 286 298 288 296 288 292 298 287 282 275 273 276 276 250 248 250 246 245 242 249 252 254 258
253 251 253 254 256 257 255 259 257 262 264 274 277 293 285 294 295 295 291 294 297 298 288 280 277 276 277 271 252 253 258 252 255 246 250 255 259 260
250 252 254 255 256 255 253 252 255 260 263 268 275 282 285 295 289 288 290 294 294 292 290 274 276 276 274 267 258 261 254 256 258 251 250 253 258 261
250 251 253 252 251 251 247 251 254 263 263 270 277 280 281 288 288 287 292 292 292 290 295 295 284 281 278 267 255 256 256 260 258 249 253 256 258 259
250 250 251 249 247 246 248 253 260 258 265 265 266 276 281 285 286 289 289 289 287 297 298 293 289 290 291 283 274 258 258 263 268 261 258 260 259 259
248 249 248 247 248 250 255 259 254 261 262 260 264 274 279 280 284 286 284 285 300 304 309 305 301 297 300 299 292 270 259 263 266 266 266 266 267 268
248 247 248 248 254 252 255 249 254 257 262 256 265 274 276 277 278 284 290 296 303 307 303 301 306 308 304 299 296 292 280 269 269 271 276 279 280 283
245 245 244 249 252 248 250 252 255 257 253 260 268 269 270 271 278 285 295 303 307 306 311 312 312 318 318 313 306 304 296 287 282 281 281 280 282 285
241 243 244 243 247 245 248 247 250 254 258 258 257 258 259 263 268 277 285 292 299 302 307 318 330 335 333 334 323 312 305 301 294 289 289 286 286 284
238 241 240 241 241 241 242 248 253 253 252 253 253 254 259 266 271 272 272 281 296 312 316 326 334 345 348 338 327 316 321 329 326 317 308 297 295 294
235 234 233 233 235 240 242 244 243 244 246 249 254 259 263 263 257 257 264 271 289 295 304 328 329 333 338 349 356 350 321 319 313 308 305 300 299 298
228 229 231 235 239 239 237 235 237 238 241 246 248 249 249 249 246 251 261 270 279 298 309 324 326 334 338 1 309 316 319 322 320 317 314 308 303 299
231 233 233 232 232 233 232 233 234 233 234 237 236 236 238 243 250 253 259 268 295 299 298 307 311 320 320 314 318 327 329 329 325 321 316 315 316 313
232 231 229 230 229 226 223 221 224 224 225 225 226 232 235 236 246 248 255 266 283 289 295 303 305 313 312 312 314 320 325 330 329 329 327 323 322 318
223 223 225 224 221 218 216 219 220 218 220 216 218 222 227 235 243 250 246 256 272 282 287 292 297 302 304 308 311 320 330 336 337 334 332 334 334 331
216 212 215 216 217 217 213 213 215 214 212 211 212 219 224 229 237 249 259 271 280 285 296 303 307 307 308 314 316 326 334 328 330 331 327 327 329 329
214 210 209 210 211 209 206 210 209 208 206 206 206 212 219 227 238 255 275 299 305 306 310 315 314 314 314 321 322 330 328 324 327 323 321 320 322 324
210 210 209 209 210 208 207 203 204 204 201 201 200 206 219 231 248 264 276 282 293 303 311 305 308 312 318 324 330 323 325 324 317 312 310 310 314 316
212 214 215 212 210 210 207 204 200 196 195 198 204 210 223 236 250 259 264 272 273 285 297 299 305 310 312 311 318 306 308 313 316 313 312 310 305 309
215 213 214 213 211 207 203 201 197 196 199 204 212 221 230 239 249 255 258 262 270 275 272 281 296 310 309 310 310 320 320 306 302 302 304 306 307 313
211 211 210 210 209 205 202 199 197 199 205 215 223 228 236 238 236 237 238 244 252 259 273 292 304 312 316 314 310 314 319 318 313 311 314 315 317 322
215 213 209 207 207 204 200 198 199 205 214 220 232 235 231 226 223 224 228 240 255 269 283 296 307 313 314 318 320 320 321 324 324 318 312 313 314 309
215 211 206 203 203 201 201 203 207 214 222 246 237 228 222 217 215 219 229 242 255 269 284 298 307 312 319 318 318 321 324 325 324 323 326 328 313 305
Wind_Speed_850mb
80 78 77 75 69 68 68 65 61 49 45 47 52 41 40 37 47 48 50 50 52 54 50 52 47 44 48 52 54 68 73 77 71 65 69 64 60 60
83 79 78 76 71 70 66 61 60 59 61 53 47 57 53 50 57 54 51 53 53 45 45 50 47 45 49 53 51 66 64 68 66 61 64 61 57 58
82 81 78 74 69 65 61 56 55 56 60 62 62 54 54 54 59 57 58 54 52 52 50 52 48 43 45 46 49 59 60 64 60 58 64 64 59 59
82 78 75 71 66 61 57 56 55 56 53 63 67 64 61 60 59 64 60 51 49 44 40 35 32 41 44 43 51 56 61 62 61 64 66 61 61 61
78 75 71 67 62 59 57 59 58 58 65 56 59 61 60 62 63 62 52 46 39 36 32 28 34 36 36 39 44 53 61 65 64 67 68 72 70 68
74 71 66 62 59 58 59 63 59 64 63 62 63 60 62 64 64 53 43 37 34 31 30 27 28 32 33 35 40 46 58 66 68 70 72 74 72 75
73 67 61 59 61 64 61 63 62 63 62 62 64 68 67 59 45 40 38 33 30 29 22 23 23 28 29 31 34 38 48 63 68 71 73 73 75 75
74 67 65 67 65 65 63 63 61 60 60 65 67 62 49 37 34 34 33 31 30 31 31 29 25 22 24 24 27 33 36 44 53 62 68 72 78 83
72 70 71 71 67 63 62 59 59 64 61 55 50 40 38 38 35 34 33 30 30 31 30 29 25 26 28 27 26 27 32 38 46 53 62 68 75 75
73 72 70 67 66 63 60 61 58 53 48 47 45 41 41 38 36 32 30 22 18 22 29 29 35 29 28 30 28 26 24 27 33 37 42 50 53 55
74 73 70 69 69 70 62 55 52 50 49 45 42 39 38 35 30 28 24 19 17 19 22 22 28 40 35 26 12 8 36 46 43 45 46 49 50 50
78 75 74 72 69 60 55 54 53 49 43 39 38 37 32 28 25 25 26 25 16 13 14 24 31 34 18 3 16 45 42 41 44 50 51 53 54 57
77 76 72 64 58 56 52 51 45 40 39 36 34 31 27 26 25 27 26 18 16 14 18 22 27 33 34 41 45 49 48 48 46 45 44 44 47 48
70 64 58 57 55 54 52 48 46 41 39 35 33 30 27 27 28 27 23 18 16 18 22 24 29 31 34 43 48 49 52 49 49 41 45 45 43 45
60 55 57 56 56 56 52 50 47 41 37 36 34 30 30 28 25 22 20 18 16 17 19 22 23 25 29 35 45 53 58 59 40 53 50 47 51 50
60 63 63 61 58 54 54 51 44 38 35 34 31 28 27 25 19 17 17 14 13 16 19 22 24 27 32 35 41 50 44 42 54 52 52 60 66 60
68 66 66 66 62 61 55 48 43 40 38 35 31 28 24 22 18 15 15 15 15 16 16 18 20 22 26 30 39 39 43 47 45 52 62 76 79 69
70 73 72 66 62 60 55 51 47 42 37 34 28 24 22 19 16 15 15 14 12 12 12 13 17 22 27 27 27 39 39 40 46 56 65 67 75 69
71 72 69 65 62 57 54 52 47 41 35 31 26 21 20 18 17 16 16 15 12 10 12 18 22 26 29 31 35 29 39 53 53 57 54 56 69 78
75 75 72 65 61 58 56 51 45 39 36 31 25 23 22 18 18 19 18 16 12 11 16 18 20 23 28 34 45 51 41 40 50 61 68 70 69 65
80 74 68 65 62 55 52 48 42 37 32 29 27 25 23 22 21 20 20 17 15 15 15 15 19 25 31 35 39 45 45 42 41 48 53 57 64 67
81 77 68 61 58 55 51 47 42 36 33 32 27 30 27 25 23 22 20 18 18 18 18 19 22 27 32 38 43 46 49 48 41 37 32 33 39 46
83 69 62 57 55 52 49 43 37 32 30 29 39 33 30 28 26 25 23 22 21 21 22 23 26 30 33 36 39 42 45 46 49 45 38 33 31 35
Wind_Direction_850mb
256 257 257 258 257 249 252 256 260 263 270 274 283 282 295 286 298 288 296 288 292 298 287 282 275 273 276 276 250 248 250 246 245 242 249 252 254 258
253 251 253 254 256 257 255 259 257 262 264 274 277 293 285 294 295 295 291 294 297 298 288 280 277 276 277 271 252 253 258 252 255 246 250 255 259 260
250 252 254 255 256 255 253 252 255 260 263 268 275 282 285 295 289 288 290 294 294 292 290 274 276 276 274 267 258 261 254 256 258 251 250 253 258 261
250 251 253 252 251 251 247 251 254 263 263 270 277 280 281 288 288 287 292 292 292 290 295 295 284 281 278 267 255 256 256 260 258 249 253 256 258 259
250 250 251 249 247 246 248 253 260 258 265 265 266 276 281 285 286 289 289 289 287 297 298 293 289 290 291 283 274 258 258 263 268 261 258 260 259 259
248 249 248 247 248 250 255 259 254 261 262 260 264 274 279 280 284 286 284 285 300 304 309 305 301 297 300 299 292 270 259 263 266 266 266 266 267 268
248 247 248 248 254 252 255 249 254 257 262 256 265 274 276 277 278 284 290 296 303 307 303 301 306 308 304 299 296 292 280 269 269 271 276 279 280 283
245 245 244 249 252 248 250 252 255 257 253 260 268 269 270 271 278 285 295 303 307 306 311 312 312 318 318 313 306 304 296 287 282 281 281 280 282 285
241 243 244 243 247 245 248 247 250 254 258 258 257 258 259 263 268 277 285 292 299 302 307 318 330 335 333 334 323 312 305 301 294 289 289 286 286 284
238 241 240 241 241 241 242 248 253 253 252 253 253 254 259 266 271 272 272 281 296 312 316 326 334 345 348 338 327 316 321 329 326 317 308 297 295 294
235 234 233 233 235 240 242 244 243 244 246 249 254 259 263 263 257 257 264 271 289 295 304 328 329 333 338 349 356 350 321 319 313 308 305 300 299 298
228 229 231 235 239 239 237 235 237 238 241 246 248 249 249 249 246 251 261 270 279 298 309 324 326 334 338 1 309 316 319 322 320 317 314 308 303 299
231 233 233 232 232 233 232 233 234 233 234 237 236 236 238 243 250 253 259 268 295 299 298 307 311 320 320 314 318 327 329 329 325 321 316 315 316 313
232 231 229 230 229 226 223 221 224 224 225 225 226 232 235 236 246 248 255 266 283 289 295 303 305 313 312 312 314 320 325 330 329 329 327 323 322 318
223 223 225 224 221 218 216 219 220 218 220 216 218 222 227 235 243 250 246 256 272 282 287 292 297 302 304 308 311 320 330 336 337 334 332 334 334 331
216 212 215 216 217 217 213 213 215 214 212 211 212 219 224 229 237 249 259 271 280 285 296 303 307 307 308 314 316 326 334 328 330 331 327 327 329 329
214 210 209 210 211 209 206 210 209 208 206 206 206 212 219 227 238 255 275 299 305 306 310 315 314 314 314 321 322 330 328 324 327 323 321 320 322 324
210 210 209 209 210 208 207 203 204 204 201 201 200 206 219 231 248 264 276 282 293 303 311 305 308 312 318 324 330 323 325 324 317 312 310 310 314 316
212 214 215 212 210 210 207 204 200 196 195 198 204 210 223 236 250 259 264 272 273 285 297 299 305 310 312 311 318 306 308 313 316 313 312 310 305 309
215 213 214 213 211 207 203 201 197 196 199 204 212 221 230 239 249 255 258 262 270 275 272 281 296 310 309 310 310 320 320 306 302 302 304 306 307 313
211 211 210 210 209 205 202 199 197 199 205 215 223 228 236 238 236 237 238 244 252 259 273 292 304 312 316 314 310 314 319 318 313 311 314 315 317 322
215 213 209 207 207 204 200 198 199 205 214 220 232 235 231 226 223 224 228 240 255 269 283 296 307 313 314 318 320 320 321 324 324 318 312 313 314 309
215 211 206 203 203 201 201 203 207 214 222 246 237 228 222 217 215 219 229 242 255 269 284 298 307 312 319 318 318 321 324 325 324 323 326 328 313 305